• In Netherlands
  • List of Countries
  • For 7 days
  • Water Temperature
  • Satellite Maps
  • Weather Map
  • Weather Widgets
  • user-avatar
    Login

    Hourly Weather Perth

    Today, 26 March, Sunday

    Time Temperature Precipitation Wind Pressure Humidity
    00:00 +18°C° 0 mm 4 mps 756 mmHg 89%
    01:00 +19°C° 0 mm 5 mps 756 mmHg 83%
    02:00 +19°C° 0 mm 5 mps 756 mmHg 78%
    03:00 +19°C° 0.1 mm 5 mps 756 mmHg 79%
    04:00 +19°C° 0.1 mm 6 mps 756 mmHg 80%
    05:00 +19°C° 0.1 mm 6 mps 756 mmHg 80%
    06:00 +19°C° 0 mm 6 mps 757 mmHg 76%
    07:00 +19°C° 0 mm 6 mps 757 mmHg 72%
    08:00 +18°C° 0 mm 7 mps 758 mmHg 68%
    09:00 +20°C° 0 mm 7 mps 758 mmHg 61%
    10:00 +21°C° 0 mm 7 mps 759 mmHg 54%
    11:00 +21°C° 0 mm 7 mps 759 mmHg 47%
    12:00 +21°C° 0 mm 7 mps 759 mmHg 47%
    13:00 +21°C° 0 mm 7 mps 759 mmHg 46%
    14:00 +22°C° 0 mm 6 mps 759 mmHg 46%
    15:00 +21°C° 0 mm 6 mps 760 mmHg 48%
    16:00 +20°C° 0 mm 6 mps 760 mmHg 50%
    17:00 +19°C° 0 mm 6 mps 761 mmHg 52%
    18:00 +17°C° 0 mm 5 mps 761 mmHg 58%
    19:00 +17°C° 0 mm 4 mps 762 mmHg 63%
    20:00 +14°C° 0 mm 4 mps 762 mmHg 69%
    21:00 +14°C° 0 mm 4 mps 763 mmHg 70%
    22:00 +13°C° 0 mm 3 mps 763 mmHg 71%
    23:00 +13°C° 0 mm 3 mps 764 mmHg 72%

    Tomorrow, 27 March, Monday

    Time Temperature Precipitation Wind Pressure Humidity
    00:00 +12°C° 0 mm 3 mps 764 mmHg 74%
    01:00 +11°C° 0 mm 3 mps 764 mmHg 75%
    02:00 +12°C° 0 mm 2 mps 764 mmHg 77%
    03:00 +10°C° 0 mm 2 mps 764 mmHg 79%
    04:00 +10°C° 0 mm 2 mps 764 mmHg 80%
    05:00 +11°C° 0 mm 1 mps 764 mmHg 82%
    06:00 +12°C° 0 mm 1 mps 765 mmHg 75%
    07:00 +14°C° 0 mm 1 mps 765 mmHg 69%
    08:00 +15°C° 0 mm 1 mps 766 mmHg 62%
    09:00 +17°C° 0 mm 2 mps 765 mmHg 55%
    10:00 +20°C° 0 mm 2 mps 765 mmHg 47%
    11:00 +23°C° 0 mm 2 mps 765 mmHg 39%
    12:00 +24°C° 0 mm 2 mps 764 mmHg 36%
    13:00 +25°C° 0 mm 3 mps 764 mmHg 32%
    14:00 +26°C° 0 mm 3 mps 763 mmHg 29%
    15:00 +26°C° 0 mm 4 mps 763 mmHg 32%
    16:00 +25°C° 0 mm 4 mps 762 mmHg 34%
    17:00 +25°C° 0 mm 4 mps 762 mmHg 37%
    18:00 +22°C° 0 mm 4 mps 762 mmHg 45%
    19:00 +20°C° 0 mm 4 mps 762 mmHg 54%
    20:00 +17°C° 0 mm 4 mps 763 mmHg 62%
    21:00 +17°C° 0 mm 4 mps 763 mmHg 65%
    22:00 +16°C° 0 mm 3 mps 763 mmHg 67%
    23:00 +14°C° 0 mm 3 mps 763 mmHg 70%

    Day after tomorrow, 28 March, Tuesday

    Time Temperature Precipitation Wind Pressure Humidity
    00:00 +14°C° 0 mm 3 mps 763 mmHg 71%
    01:00 +14°C° 0 mm 3 mps 762 mmHg 72%
    02:00 +13°C° 0 mm 3 mps 762 mmHg 73%
    03:00 +13°C° 0 mm 3 mps 762 mmHg 75%
    04:00 +13°C° 0 mm 3 mps 762 mmHg 76%
    05:00 +13°C° 0 mm 2 mps 762 mmHg 78%
    06:00 +14°C° 0 mm 2 mps 762 mmHg 73%
    07:00 +16°C° 0 mm 2 mps 762 mmHg 69%
    08:00 +17°C° 0 mm 2 mps 762 mmHg 65%
    09:00 +19°C° 0 mm 2 mps 762 mmHg 55%
    10:00 +23°C° 0 mm 2 mps 762 mmHg 45%
    11:00 +26°C° 0 mm 2 mps 762 mmHg 35%
    12:00 +27°C° 0 mm 3 mps 761 mmHg 33%
    13:00 +27°C° 0 mm 4 mps 760 mmHg 32%
    14:00 +28°C° 0 mm 4 mps 760 mmHg 31%
    15:00 +27°C° 0 mm 5 mps 760 mmHg 37%
    16:00 +25°C° 0 mm 5 mps 760 mmHg 44%
    17:00 +23°C° 0 mm 5 mps 760 mmHg 51%
    18:00 +21°C° 0 mm 5 mps 761 mmHg 60%
    19:00 +19°C° 0 mm 5 mps 761 mmHg 68%
    20:00 +17°C° 0 mm 5 mps 762 mmHg 76%
    21:00 +16°C° 0 mm 5 mps 762 mmHg 76%
    22:00 +16°C° 0 mm 5 mps 763 mmHg 76%
    23:00 +15°C° 0 mm 5 mps 763 mmHg 76%

    29 March, Wednesday

    Time Temperature Precipitation Wind Pressure Humidity
    00:00 +15°C° 0 mm 5 mps 763 mmHg 77%
    01:00 +14°C° 0 mm 5 mps 763 mmHg 79%
    02:00 +14°C° 0 mm 5 mps 764 mmHg 80%
    03:00 +14°C° 0 mm 5 mps 764 mmHg 82%
    04:00 +14°C° 0 mm 5 mps 764 mmHg 84%
    05:00 +13°C° 0 mm 5 mps 764 mmHg 86%
    06:00 +14°C° 0 mm 5 mps 765 mmHg 80%
    07:00 +14°C° 0 mm 6 mps 766 mmHg 74%
    08:00 +14°C° 0 mm 6 mps 767 mmHg 68%
    09:00 +16°C° 0 mm 6 mps 767 mmHg 58%
    10:00 +19°C° 0 mm 6 mps 767 mmHg 48%
    11:00 +21°C° 0 mm 5 mps 767 mmHg 37%
    12:00 +22°C° 0 mm 5 mps 766 mmHg 34%
    13:00 +23°C° 0 mm 5 mps 766 mmHg 30%
    14:00 +25°C° 0 mm 5 mps 765 mmHg 27%
    15:00 +25°C° 0 mm 5 mps 765 mmHg 27%
    16:00 +25°C° 0 mm 5 mps 765 mmHg 28%
    17:00 +25°C° 0 mm 5 mps 765 mmHg 29%
    18:00 +22°C° 0 mm 4 mps 766 mmHg 33%
    19:00 +20°C° 0 mm 4 mps 766 mmHg 37%
    20:00 +18°C° 0 mm 4 mps 767 mmHg 41%
    21:00 +17°C° 0 mm 5 mps 767 mmHg 43%
    22:00 +16°C° 0 mm 5 mps 768 mmHg 45%
    23:00 +16°C° 0 mm 5 mps 768 mmHg 46%

    30 March, Thursday

    Time Temperature Precipitation Wind Pressure Humidity
    00:00 +15°C° 0 mm 6 mps 768 mmHg 49%
    01:00 +14°C° 0 mm 6 mps 768 mmHg 52%
    02:00 +14°C° 0 mm 6 mps 768 mmHg 54%
    03:00 +13°C° 0 mm 6 mps 768 mmHg 56%
    04:00 +13°C° 0 mm 5 mps 768 mmHg 58%
    05:00 +12°C° 0 mm 5 mps 768 mmHg 60%
    06:00 +13°C° 0 mm 5 mps 768 mmHg 58%
    07:00 +13°C° 0 mm 5 mps 768 mmHg 57%
    08:00 +13°C° 0 mm 5 mps 769 mmHg 55%
    09:00 +16°C° 0 mm 5 mps 768 mmHg 49%
    10:00 +19°C° 0 mm 4 mps 768 mmHg 42%
    11:00 +21°C° 0 mm 4 mps 768 mmHg 35%
    12:00 +23°C° 0 mm 4 mps 767 mmHg 31%
    13:00 +25°C° 0 mm 3 mps 767 mmHg 27%
    14:00 +27°C° 0 mm 3 mps 766 mmHg 24%
    15:00 +27°C° 0 mm 3 mps 766 mmHg 23%
    16:00 +26°C° 0 mm 3 mps 766 mmHg 23%
    17:00 +26°C° 0 mm 4 mps 766 mmHg 23%
    18:00 +23°C° 0 mm 4 mps 766 mmHg 27%
    19:00 +21°C° 0 mm 3 mps 767 mmHg 30%
    20:00 +18°C° 0 mm 3 mps 767 mmHg 33%
    21:00 +18°C° 0 mm 3 mps 767 mmHg 34%
    22:00 +18°C° 0 mm 4 mps 767 mmHg 35%
    23:00 +18°C° 0 mm 4 mps 767 mmHg 36%

    31 March, Friday

    Time Temperature Precipitation Wind Pressure Humidity
    00:00 +17°C° 0 mm 4 mps 767 mmHg 38%
    01:00 +17°C° 0 mm 4 mps 767 mmHg 39%
    02:00 +15°C° 0 mm 4 mps 766 mmHg 41%
    03:00 +15°C° 0 mm 4 mps 766 mmHg 43%
    04:00 +15°C° 0 mm 4 mps 767 mmHg 45%
    05:00 +14°C° 0 mm 4 mps 767 mmHg 47%
    06:00 +15°C° 0 mm 4 mps 767 mmHg 47%
    07:00 +17°C° 0 mm 4 mps 767 mmHg 46%
    08:00 +17°C° 0 mm 4 mps 767 mmHg 45%
    09:00 +20°C° 0 mm 4 mps 767 mmHg 40%
    10:00 +22°C° 0 mm 4 mps 767 mmHg 35%
    11:00 +25°C° 0 mm 3 mps 766 mmHg 29%
    12:00 +27°C° 0 mm 3 mps 766 mmHg 27%
    13:00 +28°C° 0 mm 3 mps 765 mmHg 24%
    14:00 +29°C° 0 mm 3 mps 764 mmHg 22%
    15:00 +29°C° 0 mm 3 mps 764 mmHg 23%
    16:00 +28°C° 0 mm 3 mps 764 mmHg 23%
    17:00 +28°C° 0 mm 3 mps 764 mmHg 24%
    18:00 +26°C° 0 mm 3 mps 764 mmHg 28%
    19:00 +22°C° 0 mm 3 mps 764 mmHg 32%
    20:00 +20°C° 0 mm 3 mps 765 mmHg 37%
    21:00 +19°C° 0 mm 3 mps 764 mmHg 37%
    22:00 +19°C° 0 mm 3 mps 764 mmHg 38%
    23:00 +19°C° 0 mm 3 mps 764 mmHg 38%
    Show more